Regional Weather Roundup
Issued by NWS

Home | Current Version | Previous Version | Graphics & Text | Print | Product List | Glossary On
Versions: 1 2 3 4 5 6 7 8 9 10 11 12 13 14 15 16 17 18 19 20 21 22 23 24 25 26 27 28 29 30 31 32 33 34 35 36 37 38 39 40 41 42 43 44 45 46 47 48 49 50
337
ASUS44 KLIX 231405
RWRLA
LOUISIANA WEATHER ROUNDUP
NATIONAL WEATHER SERVICE NEW ORLEANS LA
900 AM CDT THU OCT 23 2014

NOTE: "FAIR" INDICATES FEW OR NO CLOUDS BELOW 12,000 FEET WITH NO
      SIGNIFICANT WEATHER AND/OR OBSTRUCTIONS TO VISIBILITY.
      SKY/WX - SKY CONDITION AND SIGNIFICANT WEATHER.
      TMP - AIR TEMPERATURE.    DP   - DEWPOINT TEMPERATURE.
      RH  - RELATIVE HUMIDITY.  PRES - PRESSURE.
      HX  - HEAT INDEX.         WCI  - WIND CHILL INDEX.

*  THESE STATIONS ARE NOT NWS OR FAA STATIONS AND ARE NOT UNDER
   NWS QUALITY CONTROL.

LAZ040-048-061>063-065-066-069-231500-
SOUTHEAST LOUISIANA

CITY           SKY/WX    TMP DP  RH WIND       PRES   REMARKS
N.O. AUDUBON     N/A     66  52  60 MISG        N/A
N.O. INTL ARPT MOSUNNY   65  51  60 NE8       30.11R
N.O. LAKEFRONT SUNNY     62  51  67 E14       30.11R
N.O. DOWNTOWN* FAIR      61  46  59 NE8       30.11R
SLIDELL        SUNNY     57  47  69 NE5       30.12R
BATON ROUGE    MOSUNNY   57  47  69 NE7       30.13R
BOOTHVILLE     SUNNY     72  59  63 NE7       30.08R
BELLE CHASSE   MOSUNNY   63  54  72 NE10      30.10R
BOGALUSA*        N/A     55  46  72 NE5       30.15R
NEW ROADS*     FAIR      59  47  65 NE3       30.13R
GONZALES*      FAIR      57  50  76 NE5       30.12R
HAMMOND*       SUNNY     59  45  58 NE6       30.15R
HOUMA*         SUNNY     61  52  72 NE7       30.10R
PORT FOURCHON* SUNNY     70  61  73 NE9       30.11R

$$

LAZ041-044-053-054-231500-
SOUTHWEST LOUISIANA

CITY           SKY/WX    TMP DP  RH WIND       PRES   REMARKS
LAKE CHARLES   SUNNY     59  51  75 NE7       30.12R
LAFAYETTE      SUNNY     57  50  77 NE7       30.13R
PATTERSON      SUNNY     61  54  77 NE8       30.13R
SALT POINT       N/A     62  55  77 CALM      30.09R
NEW IBERIA     SUNNY     60  50  69 NE10      30.13R
CHENAULT AIRPK NOT AVBL

$$

LAZ027-028-231500-
CENTRAL LOUISIANA

CITY           SKY/WX    TMP DP  RH WIND       PRES   REMARKS
FORT POLK      CLOUDY    57  49  77 E5        30.13R
ALEXANDRIA INT CLOUDY    54  49  83 E3        30.12S
ALEXANDRIA     CLOUDY    52  49  89 E5        30.14R

$$

LAZ001-002-231500-
NORTHWEST LOUISIANA

CITY           SKY/WX    TMP DP  RH WIND       PRES   REMARKS
SHREVEPORT     CLOUDY    58  51  78 NE5       30.16S
BARKSDALE AFB  CLOUDY    55  49  82 N3        30.18R
DTN SHREVEPORT CLOUDY    56  50  80 NE3       30.18R

$$

LAZ014-016-231500-
NORTHEAST LOUISIANA

CITY           SKY/WX    TMP DP  RH WIND       PRES   REMARKS
MONROE         CLOUDY    53  48  83 E6        30.19R
TALLULAH       MOSUNNY   53  48  83 NE6       30.18R

$$




USA.gov is the U.S. government's official web portal to all federal, state and local government web resources and services.